Location: Beemte
(52.2555°N, 5.9895°E)
Time: 21:37:14
(UTC+00:00)

CZ-4C R/B - Pass Details

Date: 15 May 2026
Orbit: 473 x 1503 km, 63.4° (Epoch: 10 June)

Event Time Altitude Azimuth Distance (km) Brightness Sun altitude
Rises 22:43:08 0° 293° (WNW) 3,141 5.7 -17.9°
Reaches altitude 10° 22:45:35 10° 305° (NW) 2,366 5.2 -18.0°
Maximum altitude 22:50:24 29° 6° (N) 1,646 4.4 -18.1°
Drops below altitude 10° 22:56:25 10° 65° (ENE) 3,002 5.2 -18.3°
Sets 22:59:55 0° 75° (ENE) 4,143 5.9 -18.3°
